Location: Alt?nova Orta
(36.9295°N, 30.7847°E)
Time: 09:31:50
(UTC+00:00)

STARLINK-1065 - Pass Details

Date: 17 February 2020
Orbit: 547 x 551 km, 53.0° (Epoch: 09 April)

Event Time Altitude Azimuth Distance (km) Brightness Sun altitude
Exits shadow 03:29:21 27° 295° (WNW) 1,075 4.6 -15.5°
Maximum altitude 03:31:23 57° 227° (SW) 650 3.7 -15.1°
Drops below altitude 10° 03:35:27 10° 148° (SSE) 1,817 6.8 -14.3°
Sets 03:37:41 0° 144° (SE) 2,707 7.8 -13.9°
